Location: ??????????
(54.8537°N, 38.8755°E)
Time: 06:36:03
(UTC+00:00)

Tiros 1 despin weight - Pass Details

Date: 15 September 2024
Orbit: 573 x 615 km, 48.2° (Epoch: 02 October)

Event Time Altitude Azimuth Distance (km) Brightness Sun altitude
Rises 05:32:04 0° 270° (W) 2,891 ? 20.8°
Reaches altitude 10° 05:34:49 10° 255° (WSW) 1,982 ? 21.1°
Maximum altitude 05:38:15 21° 206° (SSW) 1,379 ? 21.5°
Drops below altitude 10° 05:41:40 10° 156° (SSE) 1,967 ? 22.0°
Sets 05:44:23 0° 141° (SE) 2,863 ? 22.3°
